Portada
METAR-TAF:

METAR-TAF

Aeroports :

Chicago Executive Airport

Wheeling-Prospect Heights, Illinois, Estats Units d'Amèrica

latitud: 42-07-15N, longitud: 087-54-17W, altitud: 197 m

Observació

L'informe es va fer fa 48 minuts, a les 16:52 UTC
Vent 9 kt del Oest/Sud-Oest
Temperatura 0°C
Humitat 64%
Pressió 1025 hPa
Visibilitat: 12.9 km
Cel clar

METAR: KPWK 101652Z 25009KT 8SM CLR 00/M06 A3027 RMK AO2 SLP260 T00001061

Hora: 11:40 (17:40 UTC)


TAF: manca

Observacions i pronòstics meteorològics de més de 4000 aeroports (METAR i TAF).

Les estacions disponibles són els punts grocs i vermells al mapa.

Posi el ratolí al punt desitjat per veure el nom de l'estació.

Feu clic per veure les observacions i els pronòstics meteorològics.

Per canviar el mapa: feu clic els botons verds amb una creu de color negre per apropar; al botó verd amb un guió per allunyar la imatge; o en les fletxes verdes per a mapes adjacents.


METAR-TAF: